• In Hungary
  • List of Countries
  • For 7 days
  • Water Temperature
  • Satellite Maps
  • Weather Map
  • News
  • Weather Widgets
  • user-avatar
    Login

    Hourly Weather Giumri

    Today, 21 May, Monday

    Time Temperature Precipitation Wind Pressure Humidity
    00:00 +13°C° 0.8 mm 1 mps 635 mmHg 91%
    01:00 +13°C° 0.5 mm 1 mps 635 mmHg 91%
    02:00 +13°C° 0.5 mm 1 mps 634 mmHg 91%
    03:00 +11°C° 0 mm 0 mps 634 mmHg 90%
    04:00 +12°C° 0.1 mm 1 mps 634 mmHg 89%
    05:00 +13°C° 0.1 mm 1 mps 634 mmHg 87%
    06:00 +13°C° 0.1 mm 1 mps 635 mmHg 86%
    07:00 +15°C° 0.1 mm 2 mps 635 mmHg 80%
    08:00 +16°C° 0.1 mm 2 mps 635 mmHg 74%
    09:00 +18°C° 0 mm 3 mps 636 mmHg 68%
    10:00 +19°C° 0.6 mm 3 mps 636 mmHg 65%
    11:00 +20°C° 0.6 mm 3 mps 636 mmHg 62%
    12:00 +21°C° 0.6 mm 3 mps 637 mmHg 59%
    13:00 +20°C° 1.9 mm 3 mps 636 mmHg 61%
    14:00 +20°C° 1.9 mm 2 mps 636 mmHg 63%
    15:00 +20°C° 1.9 mm 2 mps 636 mmHg 65%
    16:00 +19°C° 2.2 mm 2 mps 636 mmHg 70%
    17:00 +18°C° 2.2 mm 2 mps 636 mmHg 76%
    18:00 +16°C° 2.2 mm 1 mps 635 mmHg 82%
    19:00 +16°C° 1 mm 1 mps 635 mmHg 85%
    20:00 +15°C° 1 mm 1 mps 635 mmHg 87%
    21:00 +14°C° 1 mm 1 mps 635 mmHg 89%
    22:00 +13°C° 0.4 mm 1 mps 635 mmHg 90%
    23:00 +13°C° 0.4 mm 1 mps 635 mmHg 91%

    Tomorrow, 22 May, Tuesday

    Time Temperature Precipitation Wind Pressure Humidity
    00:00 +13°C° 0.4 mm 1 mps 635 mmHg 92%
    01:00 +12°C° 0.2 mm 1 mps 635 mmHg 93%
    02:00 +12°C° 0.2 mm 1 mps 635 mmHg 94%
    03:00 +12°C° 0.2 mm 1 mps 635 mmHg 94%
    04:00 +12°C° 0.2 mm 1 mps 635 mmHg 93%
    05:00 +13°C° 0.2 mm 1 mps 636 mmHg 93%
    06:00 +13°C° 0.2 mm 1 mps 636 mmHg 92%
    07:00 +14°C° 0.2 mm 1 mps 636 mmHg 86%
    08:00 +16°C° 0.2 mm 1 mps 637 mmHg 81%
    09:00 +17°C° 0.2 mm 2 mps 637 mmHg 75%
    10:00 +18°C° 0.5 mm 2 mps 637 mmHg 72%
    11:00 +19°C° 0.5 mm 2 mps 637 mmHg 70%
    12:00 +20°C° 0.5 mm 3 mps 637 mmHg 67%
    13:00 +20°C° 0.9 mm 3 mps 637 mmHg 66%
    14:00 +20°C° 0.9 mm 3 mps 637 mmHg 66%
    15:00 +20°C° 0.9 mm 3 mps 637 mmHg 66%
    16:00 +19°C° 0.7 mm 3 mps 636 mmHg 69%
    17:00 +19°C° 0.7 mm 3 mps 636 mmHg 73%
    18:00 +18°C° 0.7 mm 2 mps 636 mmHg 77%
    19:00 +16°C° 0.6 mm 2 mps 636 mmHg 82%
    20:00 +15°C° 0.6 mm 2 mps 636 mmHg 86%
    21:00 +14°C° 0.6 mm 2 mps 636 mmHg 91%
    22:00 +13°C° 0.2 mm 2 mps 636 mmHg 91%
    23:00 +13°C° 0.2 mm 2 mps 636 mmHg 91%

    Day after tomorrow, 23 May, Wednesday

    Time Temperature Precipitation Wind Pressure Humidity
    00:00 +13°C° 0.2 mm 1 mps 636 mmHg 92%
    01:00 +12°C° 0.1 mm 1 mps 636 mmHg 92%
    02:00 +12°C° 0.1 mm 1 mps 636 mmHg 92%
    03:00 +10°C° 0.1 mm 2 mps 635 mmHg 92%
    04:00 +10°C° 0 mm 2 mps 636 mmHg 90%
    05:00 +12°C° 0 mm 2 mps 636 mmHg 88%
    06:00 +12°C° 0 mm 2 mps 636 mmHg 86%
    07:00 +14°C° 0 mm 2 mps 636 mmHg 80%
    08:00 +15°C° 0 mm 2 mps 637 mmHg 74%
    09:00 +17°C° 0 mm 2 mps 637 mmHg 67%
    10:00 +18°C° 0.1 mm 3 mps 637 mmHg 65%
    11:00 +19°C° 0.1 mm 3 mps 637 mmHg 62%
    12:00 +20°C° 0.1 mm 4 mps 637 mmHg 60%
    13:00 +20°C° 0.5 mm 4 mps 637 mmHg 60%
    14:00 +20°C° 0.5 mm 4 mps 637 mmHg 61%
    15:00 +20°C° 0.5 mm 4 mps 637 mmHg 61%
    16:00 +20°C° 0.6 mm 4 mps 636 mmHg 65%
    17:00 +19°C° 0.6 mm 3 mps 636 mmHg 69%
    18:00 +18°C° 0.6 mm 3 mps 635 mmHg 73%
    19:00 +16°C° 0.4 mm 3 mps 635 mmHg 77%
    20:00 +15°C° 0.4 mm 2 mps 635 mmHg 82%
    21:00 +13°C° 0.4 mm 2 mps 635 mmHg 86%
    22:00 +12°C° 0.1 mm 2 mps 635 mmHg 85%
    23:00 +12°C° 0.1 mm 2 mps 635 mmHg 85%

    24 May, Thursday

    Time Temperature Precipitation Wind Pressure Humidity
    00:00 +12°C° 0.1 mm 2 mps 634 mmHg 85%
    01:00 +10°C° 0 mm 2 mps 634 mmHg 84%
    02:00 +11°C° 0 mm 1 mps 634 mmHg 83%
    03:00 +11°C° 0 mm 1 mps 633 mmHg 82%
    04:00 +11°C° 0 mm 1 mps 634 mmHg 80%
    05:00 +12°C° 0 mm 1 mps 634 mmHg 78%
    06:00 +12°C° 0 mm 1 mps 634 mmHg 76%
    07:00 +14°C° 0 mm 2 mps 634 mmHg 70%
    08:00 +16°C° 0 mm 2 mps 634 mmHg 63%
    09:00 +18°C° 0 mm 2 mps 634 mmHg 56%
    10:00 +19°C° 0 mm 2 mps 634 mmHg 54%
    11:00 +20°C° 0 mm 3 mps 634 mmHg 53%
    12:00 +21°C° 0 mm 3 mps 634 mmHg 51%
    13:00 +21°C° 0.5 mm 3 mps 634 mmHg 52%
    14:00 +21°C° 0.5 mm 3 mps 633 mmHg 53%
    15:00 +21°C° 0.5 mm 3 mps 633 mmHg 55%
    16:00 +20°C° 0.8 mm 3 mps 633 mmHg 59%
    17:00 +20°C° 0.8 mm 3 mps 632 mmHg 63%
    18:00 +19°C° 0.8 mm 2 mps 632 mmHg 67%
    19:00 +17°C° 0.2 mm 2 mps 632 mmHg 71%
    20:00 +15°C° 0.2 mm 2 mps 631 mmHg 75%
    21:00 +13°C° 0.2 mm 2 mps 631 mmHg 79%
    22:00 +13°C° 0 mm 1 mps 631 mmHg 80%
    23:00 +12°C° 0 mm 1 mps 631 mmHg 80%

    25 May, Friday

    Time Temperature Precipitation Wind Pressure Humidity
    00:00 +12°C° 0 mm 1 mps 630 mmHg 81%
    01:00 +12°C° 0 mm 1 mps 630 mmHg 82%
    02:00 +11°C° 0 mm 1 mps 630 mmHg 82%
    03:00 +11°C° 0 mm 1 mps 630 mmHg 83%
    04:00 +12°C° 0 mm 1 mps 630 mmHg 81%
    05:00 +12°C° 0 mm 1 mps 630 mmHg 80%
    06:00 +13°C° 0 mm 1 mps 630 mmHg 79%
    07:00 +15°C° 0 mm 1 mps 631 mmHg 72%
    08:00 +18°C° 0 mm 1 mps 631 mmHg 65%
    09:00 +18°C° 0 mm 2 mps 632 mmHg 58%
    10:00 +19°C° 0.1 mm 2 mps 631 mmHg 56%
    11:00 +20°C° 0.1 mm 2 mps 631 mmHg 54%
    12:00 +21°C° 0.1 mm 2 mps 631 mmHg 52%
    13:00 +21°C° 0.5 mm 2 mps 631 mmHg 53%
    14:00 +23°C° 0.5 mm 2 mps 631 mmHg 53%
    15:00 +23°C° 0.5 mm 2 mps 631 mmHg 53%
    16:00 +21°C° 0.9 mm 2 mps 631 mmHg 59%
    17:00 +20°C° 0.9 mm 2 mps 631 mmHg 64%
    18:00 +19°C° 0.9 mm 2 mps 630 mmHg 70%
    19:00 +19°C° 1.6 mm 1 mps 630 mmHg 75%
    20:00 +16°C° 1.6 mm 1 mps 630 mmHg 80%
    21:00 +14°C° 1.6 mm 1 mps 630 mmHg 85%
    22:00 +14°C° 1.2 mm 1 mps 630 mmHg 86%
    23:00 +14°C° 1.2 mm 1 mps 630 mmHg 87%

    26 May, Saturday

    Time Temperature Precipitation Wind Pressure Humidity
    00:00 +14°C° 1.2 mm 1 mps 630 mmHg 88%
    01:00 +14°C° 0.3 mm 1 mps 630 mmHg 88%
    02:00 +13°C° 0.3 mm 1 mps 630 mmHg 88%
    03:00 +13°C° 0.3 mm 1 mps 629 mmHg 88%
    04:00 +12°C° 0.1 mm 0 mps 630 mmHg 87%
    05:00 +13°C° 0.1 mm 0 mps 630 mmHg 85%
    06:00 +13°C° 0.1 mm 0 mps 630 mmHg 84%
    07:00 +16°C° 0.3 mm 1 mps 630 mmHg 78%
    08:00 +17°C° 0.3 mm 2 mps 631 mmHg 73%
    09:00 +19°C° 0.3 mm 2 mps 631 mmHg 68%
    10:00 +19°C° 1.2 mm 3 mps 631 mmHg 65%
    11:00 +20°C° 1.2 mm 3 mps 631 mmHg 63%
    12:00 +21°C° 1.2 mm 4 mps 631 mmHg 60%
    13:00 +21°C° 1.8 mm 4 mps 631 mmHg 60%
    14:00 +21°C° 1.8 mm 4 mps 630 mmHg 60%
    15:00 +21°C° 1.8 mm 4 mps 630 mmHg 60%
    16:00 +20°C° 0.7 mm 3 mps 630 mmHg 64%
    17:00 +19°C° 0.7 mm 2 mps 630 mmHg 67%
    18:00 +19°C° 0.7 mm 1 mps 630 mmHg 71%
    19:00 +18°C° 0.8 mm 1 mps 631 mmHg 74%
    20:00 +16°C° 0.8 mm 1 mps 631 mmHg 77%
    21:00 +14°C° 0.8 mm 1 mps 631 mmHg 80%
    22:00 +13°C° 0.6 mm 1 mps 631 mmHg 81%
    23:00 +13°C° 0.6 mm 1 mps 630 mmHg 82%
    Show more